Theta_e
290 288 288 289 290 292 290 287 291 295 296 295 294 293 292 293 293 295 296 298 298 295 292 292 292 291 292 293 295 297 297 297 298 297 298 299 299 299 298 299 301 302 302 304 304 304 304 304 304 301 298 296 297 295 295 295 294 294 294 294 293 294 293 293 292 292 291 291 289 289 290 290 289 291 291 291 291 292 292 291 292 292 292 291 292 292
291 287 284 285 287 289 288 288 291 296 297 295 294 293 292 293 291 296 295 297 297 294 291 293 292 292 292 294 295 296 296 295 297 297 296 298 299 300 299 299 300 302 305 305 304 303 303 302 302 300 297 298 296 296 294 295 295 294 294 294 293 293 293 292 291 292 291 290 289 288 289 289 288 287 289 290 290 291 293 292 291 291 290 290 291 292
284 284 286 288 287 288 285 288 295 295 294 294 293 292 292 292 295 296 296 297 297 294 289 292 291 291 294 294 295 295 295 297 298 298 297 297 298 300 301 301 301 301 303 305 305 305 303 302 301 299 297 297 297 296 295 293 294 294 293 293 293 293 293 292 292 291 290 291 292 290 289 287 288 289 290 290 292 292 291 290 291 291 290 290 290 290
284 284 287 288 287 289 289 292 294 294 294 293 293 291 289 293 293 288 295 296 296 294 290 292 291 291 294 296 295 296 296 296 298 299 299 298 298 300 301 301 301 301 303 304 304 305 304 302 300 298 296 296 296 296 295 293 292 293 294 292 292 293 292 291 293 295 291 293 292 291 290 290 288 289 291 289 289 289 290 290 291 291 289 289 289 289
281 287 288 288 288 290 290 291 292 292 290 289 293 292 292 292 294 294 292 295 296 295 294 292 290 290 292 291 293 296 298 297 297 297 298 299 299 301 302 303 303 302 303 303 304 304 302 301 300 298 298 296 295 295 294 293 292 294 293 293 292 292 292 292 296 293 293 293 290 289 289 290 290 290 289 289 289 290 292 290 290 290 289 289 289 288
284 287 287 287 289 291 292 288 288 292 288 288 289 293 294 295 294 294 294 293 289 288 293 291 285 285 289 291 292 294 294 294 296 295 296 298 299 299 300 301 303 303 303 304 304 304 302 301 301 299 297 296 295 295 295 294 293 292 293 292 291 292 292 292 292 292 293 291 288 287 288 288 287 288 287 287 287 288 288 288 289 289 289 289 287 286
285 289 285 289 288 289 290 287 285 287 289 288 289 293 296 295 294 293 291 291 285 285 291 292 285 280 286 289 292 293 292 293 294 294 295 296 297 298 299 300 301 302 303 304 305 305 304 304 303 300 298 297 296 296 295 293 292 292 292 292 292 292 293 293 292 293 293 289 288 287 288 288 288 288 289 288 288 287 288 289 289 288 289 287 286 285
286 285 286 287 289 288 288 287 288 288 290 287 290 295 295 294 292 292 292 288 284 288 290 287 283 282 282 286 292 294 292 292 292 293 294 296 296 297 299 299 300 302 304 304 304 305 305 305 304 301 299 298 297 296 294 292 292 292 292 291 293 295 294 292 291 292 293 291 291 291 290 291 288 288 288 288 288 288 289 288 288 288 287 286 285 284
284 282 283 284 284 285 285 284 286 285 289 288 293 296 295 295 294 292 290 287 286 289 283 286 285 281 278 285 294 293 289 290 291 292 294 295 297 298 298 299 300 302 304 305 304 305 305 305 304 302 299 298 296 294 293 292 292 292 292 293 292 292 292 292 293 292 292 293 291 291 291 290 290 289 289 288 288 287 288 287 287 286 286 286 285 283
283 284 282 283 281 284 284 284 284 284 290 290 295 296 296 295 292 290 288 289 284 283 281 284 283 280 278 281 289 292 291 291 292 293 294 296 297 298 299 300 301 302 303 305 306 306 305 305 304 301 298 295 294 293 294 292 292 292 292 293 291 291 291 291 291 292 291 292 292 290 289 289 287 288 287 286 286 286 286 286 285 285 285 284 283 282
286 290 285 280 282 285 284 285 284 284 290 296 297 295 294 292 289 286 284 283 283 278 280 282 281 283 279 281 289 289 290 292 293 293 295 297 298 299 299 300 301 302 304 305 306 305 303 302 302 297 296 294 293 294 294 293 292 291 291 291 291 291 291 292 292 291 291 290 290 289 288 287 286 286 286 286 285 285 285 284 284 283 283 283 282 281
285 284 280 283 288 284 285 289 289 292 295 295 290 292 292 289 288 285 282 282 276 273 278 281 281 282 279 282 286 294 293 291 293 294 296 296 297 298 299 301 302 303 304 305 304 302 298 297 295 295 293 293 294 294 294 293 292 292 291 291 291 291 292 291 291 291 290 289 288 288 287 287 286 286 286 285 284 284 283 283 282 282 281 281 281 280
285 285 283 285 288 287 284 291 289 292 292 294 293 292 286 280 280 278 277 278 271 275 281 280 282 283 282 284 287 287 291 290 288 290 296 297 298 298 299 300 302 303 303 303 302 297 295 295 294 293 293 293 294 294 294 293 292 291 290 291 292 291 290 290 290 289 288 288 288 288 287 287 287 286 285 285 284 283 283 282 281 280 280 280 280 279
282 281 284 286 284 287 286 288 287 289 288 292 291 283 278 275 269 272 271 271 270 277 279 281 282 282 283 284 285 286 287 289 287 287 288 298 299 299 299 300 301 302 302 301 298 295 295 294 294 293 293 294 294 293 293 293 292 291 291 291 291 290 289 289 289 288 288 287 287 287 287 286 286 285 285 284 284 283 282 282 280 280 280 279 279 278
277 279 283 284 283 285 284 284 284 284 288 289 286 283 277 269 268 269 268 271 274 274 278 281 279 277 282 283 286 286 286 288 288 288 288 290 291 292 291 293 294 295 294 295 295 294 294 293 292 292 293 293 293 293 293 292 291 291 291 291 290 289 289 289 288 287 287 287 287 286 286 286 286 285 285 284 284 282 281 280 280 279 279 279 279 279
276 276 283 285 285 283 282 284 283 283 285 285 283 281 278 278 275 271 271 269 270 275 274 278 277 279 282 286 286 284 285 287 288 288 289 290 290 291 292 292 291 292 293 293 293 292 292 292 291 291 291 291 291 291 292 292 292 292 291 290 290 289 288 288 288 286 286 286 286 286 286 286 287 287 284 284 283 281 280 280 279 279 279 279 279 279
278 280 285 284 285 285 284 284 285 286 281 285 281 280 280 280 279 272 271 274 272 272 271 274 280 280 281 283 284 283 286 287 287 287 288 288 288 289 289 289 288 289 289 290 290 290 289 289 290 291 290 290 290 291 291 291 292 291 291 290 289 288 287 287 287 286 285 285 285 284 284 284 283 283 281 281 280 280 280 279 278 278 279 279 279 279
277 280 286 283 284 286 284 283 284 283 283 279 279 280 282 280 276 273 270 264 262 268 270 275 277 277 277 278 281 283 283 284 285 287 287 288 287 288 287 287 288 288 287 287 287 287 288 289 289 289 289 290 291 291 291 291 290 291 290 289 288 288 287 286 286 285 285 285 284 284 283 283 283 282 281 280 279 279 278 278 278 278 278 278 279 279
283 281 284 284 283 285 283 285 284 284 283 284 281 280 281 274 275 273 270 266 266 265 265 272 275 274 277 277 280 283 282 284 285 286 286 287 287 287 287 287 286 286 287 287 287 288 288 288 289 290 290 290 290 290 290 290 290 289 288 288 289 288 287 286 286 285 285 285 285 284 283 282 281 280 280 280 280 279 278 277 277 277 277 277 278 278
284 281 282 286 285 284 282 280 277 278 281 281 281 279 276 276 270 270 270 268 264 261 263 269 269 276 278 277 279 281 281 283 284 285 285 286 287 287 287 287 287 287 287 287 287 287 287 288 288 290 290 290 290 289 289 289 289 288 288 288 287 286 286 286 285 285 284 284 284 283 282 281 280 280 279 279 278 278 278 277 277 277 277 277 278 276
280 282 279 284 282 282 278 278 277 278 276 277 276 275 276 277 277 276 272 275 274 263 260 264 268 272 275 278 280 281 281 282 284 286 286 286 287 287 288 287 287 288 288 287 287 287 287 288 288 289 289 289 288 288 288 289 289 288 287 287 287 287 285 285 284 284 283 283 282 282 281 280 279 279 278 278 278 277 277 278 278 277 277 277 276 276
275 280 280 279 278 276 278 279 279 277 278 277 275 277 277 275 273 273 270 274 266 270 268 260 266 271 277 279 280 280 280 280 282 286 287 286 286 287 287 287 287 287 287 287 287 287 287 288 288 287 286 286 287 287 288 287 287 287 287 287 286 285 285 284 284 284 283 282 282 281 280 279 278 278 277 277 277 277 277 276 277 277 276 276 276 276
281 277 278 276 275 276 279 279 278 278 278 278 277 278 274 275 271 262 268 269 267 270 266 263 268 270 275 277 278 278 279 280 280 284 286 285 285 286 286 286 286 287 287 287 286 287 287 287 287 287 288 287 288 287 287 286 287 287 286 286 285 286 284 284 284 283 283 282 281 280 280 279 278 277 277 277 277 276 277 277 277 277 276 276 276 276
285 270 270 271 274 276 277 275 275 273 277 279 278 277 277 278 277 271 271 271 267 266 269 268 266 270 276 279 277 277 278 279 278 281 285 284 284 285 284 284 285 285 285 285 286 286 286 286 285 286 286 286 286 286 286 286 286 286 286 285 285 285 284 284 283 283 282 281 280 280 279 278 278 277 277 277 276 276 276 277 277 278 276 276 276 275
277 274 275 267 267 270 270 272 276 275 278 276 278 278 278 278 277 273 269 266 271 268 268 265 267 266 277 277 276 278 277 279 280 281 283 284 282 284 284 284 284 284 284 284 285 285 284 284 284 286 286 286 286 285 285 285 286 286 285 284 285 284 284 283 283 282 281 281 280 279 278 278 277 277 277 276 276 276 276 276 276 277 277 276 276 275
276 271 269 267 266 267 266 267 268 272 278 278 277 278 279 278 276 277 276 265 269 271 271 270 263 272 276 276 279 277 277 280 279 277 280 283 284 284 283 284 284 284 285 284 284 283 284 285 285 284 284 285 285 285 285 285 285 284 284 284 284 284 283 283 282 281 281 280 280 279 278 277 277 277 276 276 276 276 276 276 276 276 276 277 275 275
269 268 265 265 267 268 264 267 273 278 277 275 276 278 277 277 275 276 273 268 271 266 268 271 274 276 277 279 278 278 278 279 280 281 282 284 283 282 283 285 284 285 285 284 284 284 283 283 284 284 284 284 284 283 285 285 285 284 284 283 283 284 283 282 282 281 280 280 279 278 278 277 277 277 277 276 276 276 276 276 276 276 276 276 275 274
266 269 268 264 267 270 273 274 275 277 275 275 276 277 277 276 277 275 274 271 273 273 269 274 274 277 278 277 278 277 278 277 278 279 280 282 284 285 285 284 286 283 283 282 282 283 284 284 283 283 283 283 284 283 283 283 285 285 284 284 283 283 283 283 281 280 280 279 279 278 278 277 277 276 276 276 276 276 276 276 276 276 276 276 275 274
267 269 271 270 270 271 272 272 273 274 275 275 275 275 275 276 275 274 272 275 277 272 275 274 273 275 277 276 279 280 280 282 282 282 284 285 284 283 283 283 284 283 283 282 283 284 283 283 283 283 283 283 283 283 283 283 283 282 282 283 283 283 283 282 281 280 280 279 279 279 278 277 276 276 276 276 276 276 276 276 276 276 275 275 274 275
273 268 267 269 268 269 271 271 272 272 270 272 271 274 275 274 275 276 275 274 276 274 273 275 273 276 279 278 279 279 279 280 280 281 283 283 284 284 283 284 284 284 283 283 284 284 284 284 283 283 283 283 284 284 283 284 284 284 284 283 283 283 282 282 281 281 280 279 279 278 277 277 277 276 276 276 276 276 276 275 275 275 274 274 274 273
278 271 276 266 269 270 270 272 270 268 268 268 271 272 273 273 274 274 272 272 271 274 274 274 275 278 282 283 284 284 279 281 281 280 282 283 283 283 283 284 284 284 284 284 284 283 283 283 283 283 283 284 284 284 284 285 284 284 283 283 283 283 282 282 281 280 280 280 279 278 277 277 277 276 276 276 276 276 275 275 275 274 274 273 273 273
273 271 266 266 270 269 270 267 268 264 267 265 267 269 268 269 270 271 274 277 276 276 271 274 273 278 283 280 282 282 281 280 281 282 281 282 282 283 283 284 284 284 284 284 284 283 282 283 283 283 284 284 284 284 284 284 284 283 283 283 283 283 282 282 281 281 280 279 278 278 277 277 277 276 276 276 275 275 275 274 274 273 273 272 272 272
269 270 270 269 271 265 268 266 264 264 266 268 267 272 274 273 275 275 276 276 280 279 276 271 278 282 281 278 281 280 279 280 281 282 282 281 281 283 284 284 285 285 285 285 284 283 283 284 284 284 285 285 285 285 285 285 284 284 284 283 283 282 282 282 281 281 280 279 278 278 278 277 276 276 275 275 275 275 274 273 274 273 272 272 272 272
272 273 267 265 271 266 266 262 264 267 264 263 274 275 274 273 275 277 277 278 279 282 280 281 283 280 278 278 280 280 278 278 282 284 284 285 283 282 284 284 285 285 285 285 284 284 284 284 284 285 285 286 285 285 285 285 285 285 284 284 282 282 282 282 281 281 280 279 278 278 277 277 276 276 275 275 275 274 274 273 273 273 272 272 272 271
273 266 267 263 268 270 263 267 267 261 265 272 276 275 274 275 275 278 279 278 278 280 282 281 281 280 280 280 281 281 282 281 278 279 279 281 283 284 284 284 284 284 284 284 283 283 284 284 284 284 284 284 285 284 283 283 283 283 282 282 282 282 282 281 281 280 280 279 278 278 277 277 276 276 275 275 274 273 273 273 272 272 271 271 272 271
269 269 268 270 264 265 264 262 263 265 269 274 274 276 275 275 275 276 276 278 279 280 281 281 283 284 281 280 280 279 278 279 279 279 280 281 281 284 283 284 285 285 285 285 284 284 284 284 285 285 285 285 284 284 284 284 283 283 283 282 283 282 282 282 281 281 279 279 278 278 278 277 276 276 275 274 274 274 273 273 272 272 271 271 271 271
276 270 271 271 266 268 262 260 270 270 275 277 278 277 274 276 275 276 274 275 276 279 280 281 282 282 280 280 279 279 278 278 280 285 281 280 281 282 285 286 286 286 286 286 285 285 286 286 286 286 285 284 285 284 284 284 283 283 282 282 282 282 282 281 281 280 280 280 279 278 278 277 277 276 275 274 274 273 273 273 272 271 271 271 271 271
276 275 273 274 268 262 267 264 265 264 264 269 276 279 278 276 277 275 277 275 278 276 278 281 280 281 278 279 279 278 280 282 281 284 285 283 282 282 282 284 283 284 285 285 284 284 284 285 285 284 285 284 284 284 284 283 283 283 282 282 282 281 281 281 281 281 280 280 279 279 278 277 277 276 275 274 274 273 273 272 271 271 271 271 270 270
274 274 272 272 269 267 266 265 262 264 269 273 279 281 279 276 276 274 275 271 277 278 278 279 280 279 278 278 278 278 280 277 279 283 282 279 280 282 282 283 283 283 284 284 284 283 283 284 285 284 284 284 284 284 283 283 283 283 282 282 281 281 281 281 282 281 281 281 280 279 278 277 276 276 275 274 274 273 272 272 272 270 270 270 270 269
271 265 268 269 268 264 261 265 265 263 267 279 277 276 279 275 278 278 271 269 281 279 278 279 279 279 278 278 278 280 280 277 280 281 280 280 280 280 282 283 281 281 281 282 283 284 284 284 283 282 283 283 285 283 282 283 283 283 283 282 281 281 281 282 282 282 281 280 279 278 277 277 276 275 275 274 272 271 272 271 271 270 270 269 269 269
270 269 267 272 265 268 272 262 262 269 275 278 277 278 277 276 280 271 268 277 279 277 279 278 278 279 278 278 280 281 282 285 280 279 279 278 280 280 280 281 281 281 282 281 283 283 283 283 285 285 284 285 284 283 283 283 283 283 282 282 281 281 282 283 282 281 281 279 278 278 277 276 276 275 274 273 272 272 270 271 271 270 270 270 269 268
264 263 266 262 264 267 264 269 270 270 276 276 277 278 276 278 268 266 277 278 279 279 278 279 279 278 278 279 280 283 283 281 280 280 280 280 280 279 280 280 280 281 281 281 282 283 283 283 284 284 283 282 283 283 283 283 283 283 282 281 281 283 283 281 281 280 280 279 278 277 276 275 274 274 274 270 271 271 271 270 269 270 268 267 266 267
273 270 267 266 266 262 262 264 265 267 275 279 279 278 279 275 274 275 277 279 278 280 279 278 280 279 278 280 280 282 282 281 279 280 279 278 280 280 280 280 281 282 282 281 281 282 284 283 283 283 284 282 282 283 283 283 283 282 281 281 283 282 281 281 280 280 279 278 278 276 276 274 273 273 270 270 271 270 270 268 267 267 267 267 267 267
272 271 263 261 270 271 264 265 269 277 275 280 283 278 278 281 278 278 281 283 280 278 279 278 279 279 279 280 280 280 280 280 281 280 280 279 279 279 279 280 280 280 280 281 283 282 283 284 283 283 281 281 282 282 282 283 283 282 281 282 281 280 279 280 279 279 278 277 276 275 274 272 271 270 269 270 270 269 269 267 266 265 264 264 265 264
276 276 273 272 272 273 272 276 279 275 276 281 282 278 278 280 279 278 279 280 281 281 278 279 280 278 279 280 280 280 279 279 281 280 281 281 279 279 280 280 281 281 282 282 283 282 282 284 283 282 281 281 281 282 282 283 283 282 281 282 280 280 279 279 278 277 277 276 275 274 271 269 270 269 267 268 269 269 268 267 264 266 263 263 264 264
277 276 274 277 276 274 277 281 281 279 276 278 282 282 280 278 277 278 280 281 281 280 280 282 279 279 279 279 280 278 279 280 279 279 279 279 279 279 279 280 280 280 280 280 280 281 281 281 281 281 281 280 280 281 282 282 283 282 283 281 280 280 279 277 276 276 276 275 273 272 270 269 267 266 266 266 267 269 268 269 267 266 263 263 264 264
272 273 277 276 275 277 274 276 279 282 280 279 283 283 282 281 282 280 278 281 284 280 279 280 281 280 280 279 281 282 281 279 279 280 279 278 278 279 279 280 280 280 281 281 281 280 280 280 281 280 280 281 280 281 281 281 282 282 280 280 280 279 278 277 277 277 275 274 272 270 269 270 269 267 266 264 267 266 265 264 266 265 265 265 265 264
277 274 278 275 273 275 279 277 277 276 277 278 280 281 282 284 283 281 283 284 283 280 280 282 280 279 278 279 280 281 282 279 279 280 279 280 280 280 280 280 280 279 280 280 279 280 279 281 281 281 281 281 281 281 281 281 281 281 280 279 278 277 277 277 277 277 275 274 272 271 270 270 271 270 268 267 268 267 266 265 265 266 266 266 266 265
275 279 272 273 278 278 279 282 283 281 281 284 282 281 283 285 284 282 281 281 281 281 282 280 280 282 280 283 281 280 280 280 280 281 280 280 279 279 280 281 280 281 280 280 279 280 281 281 281 281 281 282 282 281 281 281 281 280 278 278 277 277 277 277 276 276 273 272 271 271 270 270 270 270 269 268 267 268 268 269 267 267 267 266 267 267
277 275 274 275 273 273 276 282 280 277 279 280 278 281 282 282 282 283 281 279 280 280 281 281 281 280 280 281 281 281 281 282 280 279 280 281 281 281 280 280 280 280 280 279 280 280 280 280 281 281 281 282 281 281 281 280 280 279 278 277 277 277 278 277 276 274 274 273 272 272 270 270 270 269 268 268 268 267 267 269 271 270 268 267 269 270
280 280 278 279 275 277 282 283 279 281 281 284 284 280 278 278 279 280 280 281 281 282 282 281 281 279 280 280 279 281 281 282 281 279 280 280 281 282 282 281 280 280 280 279 279 279 280 280 280 280 280 281 280 280 281 281 280 279 278 278 277 278 279 277 276 275 275 273 273 273 272 271 270 269 269 268 268 267 267 266 268 273 275 274 272 273
Wind_Speed
1 5 8 9 8 6 3 1 1 5 9 11 10 12 10 11 6 4 5 4 3 6 5 4 5 5 5 5 5 5 3 4 5 5 5 5 5 5 5 6 6 6 6 2 5 6 7 7 6 4 3 3 3 3 4 4 4 4 4 3 3 3 1 3 2 1 1 1 1 1 1 0 2 2 3 4 3 4 3 4 5 4 4 4 4 4
6 8 3 2 1 0 3 0 3 10 10 12 11 12 8 9 8 4 6 2 0 4 2 2 6 3 3 4 4 3 6 9 7 6 5 5 5 5 6 7 7 5 1 2 4 6 6 6 5 4 4 4 4 4 4 5 4 3 3 4 4 2 2 3 4 3 1 1 1 2 1 1 2 1 4 3 2 3 3 4 4 4 4 5 5 5
6 6 1 1 1 1 2 2 4 10 10 8 11 11 10 6 9 6 4 2 1 5 3 3 4 3 4 3 3 7 7 4 4 5 6 6 6 6 6 6 5 3 4 5 6 4 5 5 5 5 4 5 6 5 5 3 2 2 3 4 3 4 4 4 3 3 1 1 1 1 1 2 2 2 2 4 2 3 4 3 3 4 5 5 5 5
8 1 2 3 1 2 4 5 8 9 7 9 9 11 10 11 13 5 2 2 4 2 6 4 5 1 2 3 5 6 6 4 3 5 6 6 7 8 9 8 6 5 6 6 6 6 5 6 5 4 4 6 4 3 2 2 3 2 3 3 3 4 4 4 2 2 2 2 2 3 4 2 3 3 3 4 3 3 4 4 3 4 4 6 6 6
4 1 3 2 1 5 7 6 9 8 6 2 8 7 10 13 1 10 7 4 3 8 7 6 3 1 4 4 5 5 4 4 4 4 5 6 6 6 5 4 5 7 6 5 4 4 4 6 7 7 7 4 4 4 4 3 4 4 5 5 5 5 5 4 3 4 4 2 2 2 3 4 4 4 4 4 3 2 1 3 5 4 5 6 6 6
3 1 1 3 5 7 9 5 5 10 6 2 2 9 14 8 13 11 11 8 3 3 2 4 2 4 3 7 7 3 4 7 5 7 8 7 6 6 7 7 5 6 4 6 6 6 4 3 2 3 4 4 5 4 4 4 4 4 4 4 4 2 1 3 3 3 3 3 3 3 3 3 5 3 2 3 2 1 1 3 2 5 5 6 7 7
0 6 3 6 6 7 8 4 3 1 7 6 4 2 11 11 13 14 10 6 4 5 4 1 4 3 1 5 7 6 8 10 4 7 8 7 8 7 7 6 6 7 6 4 3 3 6 6 4 5 5 6 5 4 3 3 4 3 4 4 3 3 3 3 3 2 3 3 3 4 3 3 5 5 0 0 0 1 2 5 5 5 5 6 8 7
4 7 6 5 9 7 7 5 0 4 10 4 1 10 6 13 13 11 8 3 2 2 3 2 1 0 1 2 2 7 7 8 8 9 9 9 9 9 8 8 6 6 5 5 6 9 9 8 7 8 8 6 6 4 3 4 4 5 4 4 4 4 4 3 3 4 3 6 5 5 4 4 4 4 3 2 3 3 3 6 5 5 5 7 7 6
3 4 5 4 5 5 5 2 1 1 5 3 6 11 11 14 10 7 6 5 2 6 0 1 1 1 3 1 2 6 4 8 11 11 11 11 10 11 10 10 8 6 5 6 8 8 7 8 8 8 7 5 3 4 5 5 5 4 5 6 5 5 4 3 4 4 4 5 5 6 6 6 3 4 4 4 4 5 5 7 5 5 5 5 5 4
1 1 4 1 2 3 2 3 3 4 4 2 6 7 8 8 6 5 5 7 1 4 4 2 1 1 4 1 1 2 5 8 10 11 12 12 13 11 10 10 8 6 5 6 8 6 6 6 7 6 4 4 3 4 4 4 5 5 5 6 6 5 4 3 4 6 5 4 5 6 5 7 4 4 4 5 6 5 5 6 5 5 6 5 4 4
1 1 3 4 2 0 1 5 4 7 3 10 12 11 7 5 4 3 5 3 4 1 3 1 2 2 2 4 6 7 6 6 4 3 5 6 8 9 9 9 8 8 8 7 6 5 3 2 3 5 6 5 5 4 6 5 5 5 6 6 7 4 4 4 5 5 5 4 5 6 5 6 6 4 4 6 5 4 5 5 4 4 3 3 3 3
1 1 3 1 2 1 2 2 2 3 9 9 4 7 9 6 4 4 3 4 3 3 2 2 1 1 3 2 3 6 2 1 3 4 7 9 11 11 9 9 10 10 9 7 6 4 4 5 4 6 7 7 6 6 6 5 5 6 6 7 7 4 5 4 5 6 5 6 5 5 5 6 4 4 5 6 5 4 5 4 4 3 3 3 3 3
8 8 1 5 2 5 3 7 5 6 5 7 9 6 6 4 3 1 1 2 1 4 0 3 1 1 4 4 1 4 4 2 2 3 4 8 11 11 10 11 11 9 8 8 6 5 5 7 8 8 7 6 6 6 6 6 6 6 6 7 8 5 4 5 5 6 5 5 5 6 6 5 5 6 6 5 5 4 5 4 4 4 4 3 4 4
5 4 7 9 3 5 2 9 4 5 1 8 7 4 5 6 3 3 1 1 2 3 3 0 2 2 3 4 0 1 2 2 3 3 5 6 9 10 9 9 8 7 7 6 6 6 7 7 7 8 8 7 6 5 6 6 7 6 6 6 8 5 4 5 5 6 7 5 5 5 5 5 6 6 5 5 6 5 4 4 4 3 2 2 2 3
6 4 7 7 3 5 5 4 1 3 6 6 1 1 3 4 5 4 3 5 6 4 1 2 2 5 5 2 1 1 2 2 2 2 3 5 3 3 3 4 4 4 4 5 6 7 7 7 8 9 8 7 6 6 6 6 6 6 6 7 8 7 4 6 6 6 7 6 5 5 5 5 5 6 6 6 5 4 4 3 3 2 2 3 2 4
1 1 5 3 3 3 4 1 2 2 6 1 1 3 4 0 4 4 6 5 2 2 2 1 4 1 2 0 2 1 1 3 3 4 4 6 4 5 5 4 4 4 5 5 6 6 5 6 7 7 6 6 6 6 6 6 6 6 7 6 7 8 6 6 6 5 6 5 5 4 6 5 6 6 6 6 4 3 3 3 3 2 2 2 2 2
1 5 3 7 3 1 2 1 2 1 4 4 2 1 1 2 7 5 1 2 2 4 2 0 6 3 5 1 1 2 1 2 3 3 4 4 4 5 5 4 4 4 4 5 6 6 6 5 5 6 6 6 6 6 7 7 7 8 8 8 7 6 5 5 6 6 5 5 6 5 5 5 6 6 5 5 4 4 3 3 3 3 2 2 3 3
6 3 1 5 4 1 0 1 1 1 1 4 1 1 1 2 5 3 3 2 3 3 3 1 2 4 2 2 1 1 1 2 1 1 2 2 3 5 3 3 3 4 4 4 4 4 5 6 6 4 4 5 6 7 7 7 5 7 8 9 9 7 8 5 6 6 5 6 6 6 6 6 5 5 4 4 4 3 3 3 3 2 4 3 3 3
2 7 3 1 2 7 4 1 3 1 3 1 3 3 0 1 0 2 5 1 1 1 1 1 1 3 3 3 1 2 4 4 4 2 1 3 3 4 3 3 2 3 4 5 5 5 5 5 5 5 6 4 5 5 6 6 7 6 5 6 8 9 7 7 6 5 4 5 5 5 6 6 4 4 4 4 3 3 3 3 3 3 3 3 3 5
2 4 3 2 1 3 3 4 2 6 6 2 1 2 0 2 1 2 1 2 5 1 2 2 3 2 5 3 3 4 4 5 4 3 4 4 4 4 4 4 4 4 4 4 4 4 4 4 5 7 8 8 7 7 7 7 6 7 6 6 5 5 5 5 6 6 7 5 6 6 5 4 4 4 4 3 4 4 3 3 3 3 4 3 3 4
0 1 5 1 3 2 2 5 1 1 1 5 5 3 2 3 1 3 1 1 0 4 2 2 1 4 4 5 4 5 4 5 7 7 5 5 5 5 5 6 5 5 5 4 4 5 5 5 5 5 5 5 5 5 6 7 8 7 5 6 7 9 7 6 5 6 6 6 6 6 5 5 4 4 3 3 3 4 3 3 3 3 3 3 4 3
2 4 6 1 5 3 1 0 1 1 1 0 1 2 3 2 1 1 1 1 2 1 1 3 1 5 7 2 5 4 4 3 5 6 6 5 5 6 6 5 6 5 4 5 5 5 6 5 5 4 4 4 5 6 6 5 6 6 6 6 6 6 6 7 5 6 6 5 5 5 5 4 4 4 3 4 3 4 3 3 3 3 3 4 3 3
2 3 6 5 1 1 2 1 0 0 1 0 1 0 2 1 5 3 2 2 2 1 3 1 2 3 2 3 3 4 3 3 3 5 6 5 6 6 6 5 5 5 6 6 6 6 6 6 6 7 7 7 8 7 6 5 6 6 6 6 5 7 5 5 6 5 6 6 5 5 4 4 4 3 3 4 4 4 3 3 3 3 3 3 2 2
5 4 5 1 4 3 2 1 1 2 0 0 1 0 1 0 1 2 2 4 4 1 0 1 1 3 2 0 2 3 4 4 2 4 5 4 5 6 5 5 6 5 5 5 5 5 6 5 5 5 6 7 6 6 6 6 5 5 5 5 5 6 6 5 5 5 5 5 5 4 4 4 3 3 3 4 3 4 3 3 3 2 3 2 1 2
1 1 7 3 2 3 2 2 1 1 0 0 0 0 1 0 2 2 4 1 2 1 2 3 1 2 2 2 2 1 2 2 1 0 5 5 4 5 5 5 5 5 5 6 7 7 5 5 6 7 7 7 6 5 5 5 6 6 5 5 5 5 5 6 5 6 5 5 6 4 4 4 3 3 4 4 3 3 3 3 2 1 1 2 2 2
5 1 3 5 6 5 2 2 5 4 4 0 0 0 0 0 1 2 0 2 1 0 2 1 3 7 7 3 1 2 1 2 3 2 2 4 6 7 5 6 7 7 9 8 7 5 8 8 6 5 6 5 5 6 6 5 5 5 5 5 5 7 5 5 5 5 6 5 6 5 4 4 3 4 4 4 3 3 2 1 1 1 1 1 2 2
4 2 3 4 6 7 4 2 2 0 1 1 1 0 2 1 2 3 4 3 3 2 2 7 4 2 3 5 4 5 2 5 5 3 4 5 4 4 5 7 8 9 10 10 9 8 6 6 8 8 6 6 6 5 6 6 5 5 5 5 4 6 7 7 6 6 6 5 5 4 4 4 4 4 4 4 3 2 2 1 0 0 1 0 1 2
4 4 1 7 2 1 1 1 2 1 1 1 1 1 0 1 1 2 4 4 5 6 6 6 6 3 8 6 6 6 6 5 6 5 4 4 6 9 9 7 7 5 5 5 6 8 11 9 7 7 7 6 6 5 5 4 6 7 7 8 6 5 6 6 6 6 5 5 5 4 5 4 3 4 4 3 3 2 1 1 0 0 0 1 2 2
3 2 2 3 0 1 1 2 2 1 0 1 3 2 3 4 3 6 5 5 7 4 9 2 2 4 6 6 8 9 9 9 10 11 11 7 4 4 4 7 9 9 8 8 11 10 9 9 8 8 7 7 5 6 6 5 5 4 4 5 6 6 7 7 6 6 5 5 5 5 4 3 3 3 4 3 3 2 1 1 0 1 1 2 2 2
5 1 2 2 1 1 1 3 4 1 2 2 4 6 3 3 7 7 6 3 7 6 1 1 2 11 9 6 6 10 7 5 2 1 0 3 6 8 7 8 10 10 10 12 12 11 9 8 8 8 8 7 8 7 7 6 6 7 8 7 6 6 5 6 6 7 5 6 6 4 4 4 4 4 3 3 3 2 2 0 1 2 2 2 2 2
2 0 3 1 1 3 2 1 3 3 1 5 5 4 3 3 4 5 2 2 1 7 7 4 7 14 9 9 12 9 1 0 1 2 7 8 6 8 10 10 10 10 11 11 9 8 8 7 7 7 8 9 9 9 9 9 8 7 6 6 7 7 7 6 7 6 6 6 4 4 4 4 4 3 4 3 3 2 1 1 1 1 1 2 2 2
4 0 1 1 1 1 1 2 2 3 1 5 9 9 6 3 4 4 6 7 6 9 1 1 5 10 10 4 6 4 2 4 6 9 8 7 7 7 10 11 11 11 12 12 10 7 7 9 9 10 11 10 9 9 9 8 8 7 8 7 8 7 6 6 6 7 6 5 4 4 5 4 4 3 3 3 3 3 2 1 1 1 1 1 2 2
2 6 2 1 1 2 2 1 3 6 3 6 8 10 13 9 4 1 3 3 8 5 5 5 11 7 6 3 3 4 5 7 7 9 9 7 6 10 13 13 13 13 13 12 11 10 10 12 12 12 10 8 10 10 10 10 9 10 9 9 8 6 7 7 7 6 6 5 5 5 5 4 4 4 3 3 3 3 2 2 2 1 1 1 1 1
1 4 2 1 1 2 3 4 1 2 2 4 3 2 7 8 13 10 7 12 11 10 9 8 11 1 1 4 6 6 6 7 11 12 8 9 9 10 11 11 12 13 12 10 10 11 11 8 8 10 11 11 11 11 10 11 13 11 8 8 7 8 8 8 6 6 6 5 6 5 5 5 4 4 4 3 3 3 3 3 2 1 1 1 1 1
3 2 1 1 0 1 2 1 2 1 9 4 1 1 2 1 6 14 12 7 5 11 11 11 12 9 9 8 8 7 8 6 3 6 6 8 7 9 13 14 13 11 12 10 10 9 9 11 11 9 8 9 10 8 8 8 6 6 6 8 9 8 9 7 7 6 6 6 5 5 5 5 5 5 4 4 4 3 3 3 3 2 2 1 0 0
4 5 3 1 2 1 2 1 1 3 3 5 3 1 2 1 1 1 7 12 14 14 15 15 18 13 5 8 7 5 4 7 6 7 11 9 9 10 9 11 13 12 13 12 12 12 12 13 15 15 14 10 9 9 10 11 8 9 9 7 9 8 8 8 7 7 5 6 6 7 6 6 6 5 4 4 4 4 4 3 3 3 2 1 0 1
7 4 2 1 0 1 2 1 9 7 8 1 1 1 5 3 5 3 2 4 5 8 11 12 15 11 5 6 5 4 4 3 6 11 6 9 11 11 13 14 12 14 14 12 13 15 15 14 13 13 9 9 11 11 11 8 9 8 8 8 8 8 7 7 8 8 8 7 7 7 7 7 7 6 5 5 5 4 4 4 3 2 2 1 1 1
1 2 3 2 2 3 1 3 5 4 2 6 4 1 2 1 4 2 2 6 2 4 7 9 8 10 5 3 4 3 1 1 8 12 5 8 11 12 12 10 6 8 10 10 9 8 8 9 8 7 11 11 11 12 9 9 10 9 9 9 7 8 8 8 9 8 8 8 8 8 7 7 7 7 6 5 6 6 4 3 2 3 3 2 2 2
4 5 5 4 2 2 2 2 2 2 3 5 3 1 2 4 5 3 3 4 3 3 6 9 8 7 5 4 3 2 4 4 9 9 6 4 5 7 10 12 10 9 9 11 12 11 10 10 11 11 8 9 11 10 8 9 10 10 9 9 9 8 9 10 9 9 10 10 8 7 7 7 7 6 6 6 6 5 5 5 5 2 3 2 1 2
5 3 1 1 1 1 5 1 4 5 3 1 4 2 3 3 3 1 2 3 3 3 6 7 7 6 5 5 6 7 8 6 8 8 2 3 5 6 8 10 8 7 7 6 7 10 11 8 8 7 10 12 14 10 10 10 10 10 10 9 8 9 11 12 12 10 7 6 6 7 7 7 7 7 7 7 4 4 5 3 3 3 3 2 1 1
1 0 1 8 5 4 5 4 3 7 7 7 4 3 2 3 1 2 2 2 3 4 5 7 6 6 5 6 7 8 12 10 5 3 3 4 2 4 4 4 6 6 8 7 8 6 8 10 13 14 16 14 10 10 10 10 10 10 9 8 9 12 13 10 7 6 7 6 6 7 7 7 7 8 6 5 5 5 3 4 4 3 3 3 1 0
1 2 1 4 3 5 5 4 7 7 9 4 1 5 3 2 1 2 3 1 5 4 4 7 5 4 7 9 9 9 7 5 6 5 5 3 1 2 1 2 4 3 1 4 7 8 8 8 8 7 6 5 9 10 10 11 11 10 8 8 12 15 7 5 6 6 6 7 7 7 7 7 6 5 6 4 4 5 4 3 3 3 4 2 1 1
9 6 6 5 3 3 2 1 4 3 0 5 9 3 0 3 5 4 1 2 3 1 5 5 6 4 8 7 10 10 9 7 5 5 5 4 1 2 3 4 7 8 8 6 6 6 10 9 9 10 10 7 8 9 10 11 11 9 8 11 15 7 6 6 6 7 7 7 7 7 7 6 6 5 4 4 5 5 5 4 4 3 3 3 3 3
4 2 1 4 6 7 4 4 5 8 3 8 11 5 7 11 2 4 6 3 3 4 4 4 5 7 8 7 7 8 9 8 9 8 6 4 4 2 2 3 2 3 5 5 6 9 8 10 8 8 5 6 8 8 9 12 12 10 10 15 5 5 5 6 6 6 7 7 6 6 5 5 5 4 5 6 6 5 6 5 4 4 4 3 3 4
9 5 7 3 6 6 8 9 10 4 4 8 8 5 4 6 2 4 4 2 4 6 5 3 5 5 9 8 7 6 5 7 9 5 5 5 4 5 5 5 5 6 7 9 9 8 7 10 11 8 6 6 8 8 9 9 12 10 13 9 6 7 8 7 7 7 7 7 6 6 5 4 4 5 5 5 6 6 6 5 4 4 3 3 3 3
2 1 2 1 5 5 7 11 5 2 2 6 9 9 6 4 3 4 6 5 7 5 8 7 5 5 5 6 5 5 7 6 5 6 6 4 4 4 3 2 3 3 3 3 4 7 7 4 5 7 9 7 7 8 8 9 9 13 12 5 7 7 7 8 8 7 8 6 5 5 5 5 4 4 5 5 5 6 6 7 6 6 4 4 5 4
3 2 1 2 2 1 5 2 4 10 6 7 11 8 6 7 9 5 4 7 8 4 5 6 6 5 6 7 8 7 8 6 6 7 5 3 4 5 6 7 6 6 7 8 7 7 6 6 7 8 9 10 8 9 8 9 9 7 4 7 6 7 7 8 9 8 6 7 6 5 5 7 6 6 5 4 4 4 4 3 5 5 5 5 5 5
2 4 3 4 1 4 9 6 6 4 4 5 7 6 9 12 10 9 12 9 6 4 5 7 4 5 3 5 9 7 8 5 6 7 5 6 7 7 7 8 8 5 6 4 5 6 5 7 9 10 10 11 10 9 9 9 9 6 5 5 7 7 8 8 9 9 8 7 6 7 7 7 8 9 7 7 6 6 5 4 5 6 7 7 7 6
1 6 4 4 5 8 9 14 17 7 9 14 12 11 13 11 8 7 8 9 8 8 10 7 6 8 7 11 6 6 7 8 9 8 7 7 6 6 8 9 8 9 7 7 7 8 11 10 10 10 11 11 8 9 9 9 7 6 7 7 7 8 9 9 7 6 5 6 6 7 7 8 8 8 7 6 6 6 6 8 8 8 6 5 5 6
4 5 3 2 1 5 9 11 2 1 7 7 6 11 12 13 9 11 6 5 7 9 10 8 9 7 7 6 7 7 9 9 7 7 8 8 9 9 8 8 7 7 8 6 5 7 7 7 9 10 11 10 7 8 9 9 7 6 6 7 8 9 10 8 7 6 7 7 7 7 7 7 7 6 6 6 6 6 6 5 6 6 6 6 7 10
9 10 8 7 7 9 12 12 4 4 6 11 8 6 6 4 5 7 9 9 10 11 9 7 7 5 7 10 6 8 10 9 8 7 7 6 10 10 10 10 10 9 9 8 7 8 9 9 7 7 8 8 6 8 9 8 7 7 7 8 8 10 9 9 8 7 7 7 8 9 8 7 7 6 6 5 5 5 6 6 5 10 12 9 6 7
Wind_Direction
117 112 150 164 168 154 108 138 155 107 110 96 93 113 128 117 86 86 107 140 132 92 48 93 103 136 175 197 192 184 192 218 199 188 192 192 200 208 212 218 217 221 228 211 199 199 207 212 213 212 184 191 200 181 158 158 171 160 161 139 184 224 159 156 192 228 212 251 353 25 32 164 11 65 79 81 79 80 95 85 76 77 77 71 61 54
74 86 63 67 7 127 180 28 109 99 116 122 118 114 114 118 118 131 121 140 324 107 100 110 113 146 188 179 194 177 203 213 206 201 212 204 210 210 213 222 221 225 207 250 226 214 207 208 209 203 187 175 181 219 165 176 186 162 134 153 198 217 202 202 194 196 147 188 190 163 197 130 57 89 115 108 90 103 81 75 90 95 88 71 59 53
61 113 178 319 261 220 47 66 112 117 115 123 127 125 111 110 102 74 84 101 77 87 151 154 114 171 192 183 177 196 208 224 214 208 209 205 215 219 218 223 225 190 205 202 227 211 210 211 210 199 193 200 200 191 192 188 152 157 150 181 192 199 200 222 203 144 157 212 217 125 176 135 108 43 86 110 110 96 86 70 83 87 76 71 58 50
98 318 266 295 355 102 48 86 97 96 102 120 131 137 150 155 142 150 222 127 25 110 167 172 105 126 203 199 207 203 198 227 220 208 221 210 215 215 216 212 206 209 213 209 204 209 206 201 208 202 197 208 203 196 181 143 177 182 188 197 195 212 212 210 198 163 180 156 117 88 133 97 93 114 88 80 69 70 73 58 63 64 74 66 59 48
135 155 335 336 104 116 104 114 115 114 100 86 131 112 134 165 169 140 161 120 105 37 101 120 73 320 203 219 227 224 206 215 220 222 230 227 229 236 251 252 215 206 208 209 219 217 188 198 208 201 206 188 193 205 196 174 176 190 196 198 190 194 203 199 163 159 151 100 32 25 59 76 65 57 54 58 33 17 68 71 55 52 69 66 61 47
5 337 343 75 99 109 109 99 123 123 112 96 320 160 152 138 114 111 129 129 38 32 266 144 109 273 203 217 232 205 209 233 219 209 225 221 221 227 234 231 219 228 208 190 201 200 200 217 216 218 206 193 208 206 208 185 189 180 190 188 187 178 139 137 158 153 104 82 105 59 59 62 67 70 60 103 151 122 118 106 86 60 58 68 60 46
170 321 88 124 108 108 110 112 267 114 133 123 216 124 144 134 127 135 148 118 132 162 201 110 139 255 258 226 223 211 217 231 229 226 229 220 220 220 226 224 216 215 213 205 188 186 205 200 190 227 213 206 204 216 184 170 173 168 170 167 146 125 112 121 99 81 99 75 76 101 119 136 142 128 221 238 305 101 42 63 66 68 57 56 58 43
7 354 50 62 100 102 114 113 304 150 125 171 209 133 144 128 135 151 134 92 141 109 80 67 110 162 304 281 210 188 210 232 242 239 229 222 216 218 221 222 216 218 211 193 192 204 202 200 195 210 210 200 206 180 130 133 146 146 146 121 109 107 104 86 89 63 87 108 108 100 95 108 133 135 142 51 53 54 79 72 59 68 62 56 53 43
65 350 28 66 88 75 135 186 316 357 125 210 160 145 149 146 139 115 97 102 120 121 83 320 336 53 267 259 90 145 209 240 242 234 229 220 216 216 217 221 219 213 210 199 202 207 197 197 202 208 202 201 156 140 148 152 152 125 109 102 98 88 88 69 84 88 69 103 114 115 115 88 69 93 85 88 71 68 67 78 60 65 57 58 48 43
320 168 289 134 84 111 284 306 259 184 91 355 105 82 83 75 62 86 103 106 55 70 216 241 31 162 285 278 136 152 248 256 239 228 226 214 211 209 209 215 215 207 209 212 218 200 201 212 204 189 149 122 153 150 136 132 118 109 105 102 96 88 87 101 85 90 85 99 110 101 106 111 101 94 80 74 69 64 62 74 59 54 51 37 31 21
211 62 140 88 69 219 186 265 203 217 166 130 102 105 93 60 58 43 64 91 76 24 258 260 300 166 300 244 191 159 222 213 223 221 220 209 208 209 207 204 201 201 206 209 208 211 184 190 169 134 139 137 122 136 131 124 117 111 107 106 95 100 95 87 90 93 94 88 89 105 108 115 117 102 96 81 59 64 65 74 61 61 57 45 38 18
29 50 38 307 88 333 162 80 360 84 105 109 112 129 113 53 41 32 359 36 108 253 268 279 272 280 180 296 248 229 255 185 199 210 195 195 199 199 196 196 196 197 202 199 191 187 128 118 117 122 126 138 139 131 123 119 113 111 112 109 104 94 97 93 95 93 90 89 87 95 101 101 107 107 94 91 86 75 79 74 67 47 51 25 23 19
24 16 275 345 265 45 342 90 16 38 33 83 121 120 120 134 71 115 13 159 198 181 255 317 269 49 255 219 284 304 271 313 304 246 220 196 198 193 192 192 193 194 193 192 184 165 158 153 149 142 139 137 146 142 138 126 119 116 114 117 113 109 105 102 101 97 93 91 94 101 100 103 101 93 95 98 93 79 80 73 63 51 46 13 21 3
338 279 22 338 29 11 70 102 118 62 25 110 139 127 91 116 53 126 276 336 331 289 265 228 300 260 258 299 250 296 319 295 301 293 259 209 197 191 186 184 182 187 188 182 167 165 163 161 150 146 148 148 143 141 134 130 126 123 122 123 117 128 123 116 100 101 94 89 94 96 103 104 102 97 96 92 91 78 79 87 89 90 92 67 43 25
110 56 344 6 18 345 40 80 151 165 148 155 79 115 164 142 151 168 186 171 198 189 270 271 104 230 156 226 284 245 287 318 329 351 24 57 79 100 107 128 140 157 156 150 157 162 158 153 149 150 152 150 148 144 134 136 128 125 127 127 126 126 127 112 111 104 100 97 97 98 97 100 98 100 90 80 83 94 97 90 94 78 54 73 46 48
109 175 268 278 242 3 18 334 95 86 72 306 149 86 70 309 151 127 200 143 156 125 41 246 210 188 174 228 250 278 346 16 11 22 51 65 70 97 93 105 123 132 135 138 135 125 126 140 142 140 146 149 146 141 140 138 137 132 137 137 138 137 136 125 114 107 110 108 104 100 98 97 97 91 86 82 79 83 95 98 101 83 59 63 48 37
34 32 286 319 355 344 338 358 16 95 129 231 59 170 237 142 94 105 50 66 100 53 230 211 318 302 301 13 33 344 53 14 17 30 59 64 65 80 92 91 93 111 124 129 133 136 135 134 143 147 147 146 140 141 151 153 150 145 143 139 133 130 124 122 121 120 115 119 105 97 98 95 87 88 99 112 112 103 93 100 92 81 66 53 44 31
134 180 298 44 1 337 174 140 307 10 148 72 65 220 130 130 121 122 142 340 59 148 238 40 233 310 18 251 341 357 325 279 326 47 74 67 80 96 90 86 108 115 115 114 114 126 140 144 141 133 131 143 150 149 147 149 153 147 150 145 139 140 134 133 127 126 128 119 108 103 90 82 93 106 116 116 115 115 102 77 71 64 50 40 25 43
109 82 314 338 232 279 347 55 9 327 17 142 178 184 105 199 211 335 90 74 97 244 275 333 298 254 193 252 353 251 206 236 239 232 122 137 124 132 125 112 95 104 105 116 128 131 135 139 137 136 138 142 140 143 145 144 141 139 139 142 142 146 145 142 133 127 117 111 109 104 105 111 109 113 110 106 109 111 100 86 76 67 63 45 36 37
33 111 319 292 341 311 17 51 80 307 327 18 38 21 6 99 143 84 160 175 115 210 63 279 44 231 213 220 190 247 223 222 224 212 211 190 175 163 161 160 153 150 147 147 145 143 138 137 142 147 149 150 150 146 149 145 141 141 142 132 122 114 121 125 128 127 114 106 106 103 98 103 120 119 121 128 121 103 98 92 74 70 52 49 43 39
83 50 140 272 332 36 27 4 100 332 331 337 26 348 360 20 207 106 42 65 320 164 168 156 335 281 267 210 169 227 235 221 204 206 203 192 187 184 177 171 174 169 162 161 153 147 142 144 151 152 147 138 130 136 144 149 150 146 136 137 144 142 143 133 131 116 117 114 114 123 132 137 125 119 119 115 111 102 92 77 75 68 70 49 40 41
64 16 125 336 26 10 203 93 222 156 203 202 126 107 162 99 67 125 272 42 76 65 218 99 244 270 271 170 197 213 239 229 227 197 196 198 189 185 190 187 170 168 177 162 159 152 154 158 155 142 131 134 134 146 147 146 133 139 148 152 148 138 143 134 126 123 127 126 133 141 145 135 127 131 124 113 104 89 91 83 67 72 52 47 27 57
142 129 90 64 124 186 273 269 268 169 158 189 128 330 146 108 97 91 119 257 35 43 109 150 109 268 240 215 201 218 247 257 235 192 202 195 191 194 197 186 185 173 168 168 165 169 169 166 165 162 160 162 161 159 151 149 153 157 155 152 158 143 142 132 136 132 134 139 146 149 140 133 137 138 130 109 93 90 86 73 67 66 69 41 17 14
84 75 57 324 309 313 323 320 236 62 177 30 272 225 94 319 194 168 165 183 129 326 5 11 43 257 290 273 241 248 262 264 257 191 202 199 198 197 187 186 180 171 174 175 175 176 173 163 160 155 161 165 165 161 161 162 157 154 155 156 149 136 135 132 139 141 139 144 146 141 129 137 148 136 129 101 107 97 88 85 67 57 60 32 44 23
67 300 111 70 12 342 344 352 360 306 96 191 174 235 210 236 68 158 105 75 92 244 165 108 225 287 276 334 317 323 339 326 303 281 183 193 209 192 189 187 182 171 169 180 184 182 168 161 171 179 175 173 171 166 162 162 163 157 158 150 140 139 147 144 147 145 151 150 143 139 139 154 163 137 115 110 107 103 99 82 72 44 59 30 25 10
90 178 94 124 145 153 205 250 243 237 233 269 117 305 22 79 145 3 228 351 75 273 107 157 253 254 275 311 300 293 320 299 276 261 267 205 189 182 184 186 181 176 184 185 184 174 183 188 185 180 182 178 177 172 170 169 159 154 150 155 149 148 152 157 153 154 151 154 145 151 158 173 164 139 126 122 112 119 111 97 83 23 25 70 32 10
117 86 85 151 150 185 203 211 256 292 15 162 281 38 243 26 61 92 99 82 226 194 202 238 188 287 288 262 267 266 238 223 237 231 202 203 209 206 189 183 183 186 186 188 187 189 183 189 194 190 184 185 180 176 175 165 157 152 153 161 168 163 157 161 157 157 154 158 152 159 178 186 171 141 134 129 134 135 114 112 138 141 16 350 72 47
73 58 352 119 112 188 204 199 290 316 171 234 160 241 181 183 183 113 148 222 175 90 300 254 208 183 248 242 251 264 257 250 245 236 234 234 210 190 193 192 194 196 198 184 186 190 195 194 189 188 187 184 183 179 170 168 163 164 168 171 173 166 157 160 156 158 159 157 160 176 192 192 158 138 140 143 143 134 150 161 159 42 357 42 40 18
130 113 254 80 9 318 291 310 334 27 194 256 224 218 207 214 154 181 229 209 144 179 216 267 146 209 255 227 230 228 213 209 211 211 210 202 171 168 169 189 197 202 197 195 203 201 193 189 188 188 187 188 175 176 174 166 167 166 174 171 169 167 171 162 156 161 163 161 173 196 192 168 150 135 140 142 134 159 155 181 150 120 85 56 21 8
91 42 218 100 167 330 335 353 359 52 326 321 249 240 257 175 214 214 238 218 199 231 196 210 211 249 249 264 241 240 228 215 250 331 115 173 192 192 193 201 202 202 199 204 207 202 197 190 183 188 185 184 184 179 175 174 178 181 177 179 175 173 171 156 167 163 168 176 192 190 179 163 149 151 144 146 165 189 191 194 127 110 82 49 20 357
95 263 67 311 75 289 313 350 41 46 71 296 279 272 254 265 297 260 289 287 68 293 264 254 279 286 261 209 246 253 125 80 327 274 217 216 195 191 198 207 209 208 213 216 211 202 195 192 190 186 189 193 187 184 178 183 183 180 180 175 176 178 175 169 166 174 172 189 191 180 170 158 162 155 163 174 178 191 179 181 138 118 85 46 14 346
63 169 60 71 63 317 345 12 312 20 359 215 275 273 245 198 237 215 202 209 170 224 236 158 285 260 273 182 235 265 179 190 217 233 234 228 208 199 204 213 213 214 215 215 212 199 194 195 194 193 196 194 189 182 179 180 183 177 188 180 181 180 168 174 173 175 184 187 178 177 172 167 161 169 186 173 203 193 201 138 141 122 98 67 5 335
117 128 126 128 70 266 262 56 335 335 352 325 277 233 209 206 197 297 273 233 219 162 164 187 231 229 239 202 165 247 190 230 241 245 244 242 219 202 207 212 214 215 214 213 204 199 200 198 198 197 196 191 187 185 191 179 173 190 185 182 186 159 171 180 179 177 181 185 181 180 174 163 170 186 186 199 202 196 168 161 153 140 104 52 304 326
84 110 140 166 127 249 297 323 315 19 355 245 234 188 145 175 199 210 234 215 213 168 213 197 232 210 118 140 186 219 197 220 213 236 226 218 204 212 223 221 218 215 216 214 206 199 200 195 200 202 198 193 192 190 184 182 185 190 180 171 161 170 180 177 181 178 185 182 188 179 173 169 180 190 200 200 200 189 173 174 196 165 155 142 37 1
124 72 129 149 97 271 329 357 35 297 238 241 246 254 207 174 182 204 234 245 210 219 251 278 264 246 217 205 205 210 215 248 290 274 262 229 203 203 209 215 217 215 214 209 205 202 194 194 198 198 197 197 190 185 174 192 186 154 158 167 172 181 176 183 174 182 184 187 187 177 173 178 186 195 201 200 197 187 187 203 187 159 172 142 171 292
141 117 178 47 120 48 53 44 94 241 234 275 282 311 216 113 151 150 291 257 227 211 213 235 251 249 220 235 253 246 248 271 294 258 242 231 201 204 204 215 218 209 211 206 198 199 191 192 195 193 198 187 173 185 186 187 173 166 179 174 176 178 182 176 177 186 182 189 189 185 181 180 190 196 197 197 198 192 200 204 192 183 172 149 277 286
138 104 105 166 117 190 194 159 233 298 321 6 42 227 178 168 173 167 247 291 219 203 187 225 250 260 238 242 246 277 284 310 306 281 229 211 209 212 206 216 207 208 209 205 193 199 197 193 191 195 177 174 184 182 193 178 169 171 164 173 186 177 180 175 184 191 190 195 190 186 183 184 188 195 196 198 195 201 204 198 200 177 154 169 218 279
51 163 236 131 273 125 152 339 340 12 286 278 243 288 202 190 149 185 115 292 301 234 205 205 239 260 250 236 221 232 341 344 300 277 262 218 207 208 221 230 221 209 204 202 199 199 191 193 187 173 173 178 188 193 180 168 169 166 171 181 178 178 182 185 197 193 192 198 192 186 182 185 187 192 197 194 202 203 205 197 177 178 170 187 241 271
28 80 118 139 158 63 64 147 223 180 249 208 247 255 199 174 144 130 65 303 269 213 200 190 229 247 221 185 204 141 128 203 246 257 274 269 253 222 217 221 213 205 198 192 185 187 187 187 179 174 172 175 189 193 173 168 166 166 181 182 181 184 187 198 199 192 197 199 187 181 179 183 188 193 195 199 205 194 194 193 188 179 162 167 168 223
46 351 46 45 99 183 133 124 253 205 235 287 234 248 209 171 158 71 353 286 254 228 193 178 214 232 215 185 154 160 161 198 254 253 243 260 258 243 213 217 206 208 208 195 198 190 178 159 135 152 176 187 199 174 166 165 168 179 182 187 177 187 201 203 201 199 191 177 173 175 179 184 190 196 195 200 193 191 192 171 152 162 165 164 155 240
159 333 58 202 173 188 163 263 320 294 269 252 248 198 167 181 121 66 192 235 238 203 189 178 212 215 163 158 169 177 220 207 194 237 287 291 298 277 242 213 207 193 187 185 193 160 153 169 172 178 188 195 175 162 166 164 169 185 188 177 183 204 210 201 183 174 179 170 170 178 185 188 192 195 199 189 185 177 163 170 173 166 173 195 222 317
339 100 324 80 126 173 194 186 238 253 242 174 328 151 188 103 94 191 235 206 152 210 212 188 214 208 169 178 193 219 237 253 287 306 305 315 262 265 280 166 126 125 132 169 160 160 163 169 184 187 188 170 163 165 164 168 176 188 180 181 204 214 190 160 171 168 167 174 180 183 185 191 195 189 184 169 150 159 177 175 163 173 175 164 183 240
193 142 198 176 198 69 54 45 356 329 277 128 127 69 68 132 227 204 196 253 195 190 172 221 206 227 172 212 222 231 259 279 280 292 296 295 262 208 195 169 168 169 164 150 169 189 164 168 182 188 185 169 165 168 171 169 181 184 184 197 216 189 157 169 162 169 173 177 181 187 188 188 183 179 165 168 173 169 183 176 168 175 162 179 204 234
204 137 232 260 191 150 149 159 204 212 207 194 151 174 215 211 191 179 140 201 222 185 189 208 234 206 196 202 220 239 247 258 279 262 282 290 260 255 204 219 204 175 166 187 180 177 178 177 180 178 172 167 169 173 174 175 181 186 188 216 184 145 156 155 167 164 174 183 188 182 186 182 176 170 167 170 170 172 173 185 188 180 188 183 203 232
211 181 176 168 213 147 192 214 242 233 204 212 217 213 213 236 219 181 170 179 174 234 192 158 232 216 198 204 224 228 264 239 237 232 214 242 221 214 201 207 196 190 184 178 184 179 180 180 177 170 169 178 178 181 183 186 182 183 206 210 141 167 162 164 160 170 182 188 185 183 176 158 165 172 176 180 172 176 184 189 176 198 221 185 217 221
296 192 197 99 246 269 260 225 224 270 245 259 254 244 249 276 268 171 198 234 246 211 174 192 215 207 202 199 195 248 222 243 230 240 234 240 217 230 214 197 206 208 207 179 160 179 184 161 152 164 175 186 190 188 189 195 185 189 210 147 162 161 164 158 165 179 191 184 178 174 155 159 168 178 188 190 195 192 189 182 184 201 202 185 215 218
249 163 136 218 274 44 269 335 188 238 223 224 231 257 264 242 240 188 225 227 246 201 214 242 216 210 196 174 199 222 239 224 225 239 224 214 211 211 202 200 201 191 187 193 192 161 159 156 164 180 184 191 198 194 196 198 206 205 142 161 159 159 158 168 175 185 179 183 171 155 160 174 183 193 201 201 199 197 187 180 180 187 199 198 209 226
300 176 153 218 156 187 237 245 241 241 241 237 228 253 258 254 244 219 224 236 234 213 208 227 205 243 170 199 212 212 242 222 207 228 214 210 207 203 203 202 199 199 216 201 173 178 166 175 181 186 188 200 198 194 195 200 206 192 158 153 156 156 160 171 182 183 188 178 171 174 179 186 189 190 201 204 191 194 201 206 189 191 203 199 204 210
164 126 219 172 191 270 305 281 267 274 276 263 243 227 237 239 241 252 228 236 243 248 247 238 200 217 187 225 196 206 233 240 215 209 203 207 208 205 207 204 201 199 185 186 187 181 188 185 190 194 193 204 193 187 194 203 201 180 168 163 159 160 166 181 186 183 172 168 167 185 186 194 193 200 199 201 208 219 207 194 195 207 227 230 198 190
107 209 202 103 260 270 225 246 131 293 283 289 273 236 233 237 227 244 252 240 235 234 242 240 243 224 225 229 206 198 217 236 217 199 210 208 206 207 204 202 199 192 198 197 175 192 202 202 196 192 200 209 185 187 197 203 195 182 173 163 167 167 176 178 173 177 184 178 187 188 185 197 203 201 201 199 205 214 247 244 214 208 199 231 218 221
190 202 147 196 174 238 239 234 189 209 265 251 241 251 227 218 176 210 228 231 237 227 224 210 241 252 236 238 208 202 223 226 224 193 213 216 220 211 202 192 187 195 198 183 175 195 204 205 202 204 211 209 185 193 199 200 191 178 178 174 174 177 180 168 173 186 188 185 201 195 192 193 200 200 199 201 199 205 219 248 248 231 229 226 212 212